Probability
0 0 0 0 0 0 0 0 0 0 0 0 0 0 0 0 0 0 0 0 0 0 0 0 0 0 0 0 0 0 0 0 0 0 0 0 0 0 0 0 0 0 0 0
0 0 0 0 0 0 0 0 0 0 0 0 0 0 0 0 0 0 0 0 0 0 0 0 0 0 0 0 0 0 0 0 0 0 0 0 0 0 0 0 0 0 0 0
0 0 0 0 0 0 0 0 0 0 0 0 0 0 0 0 0 0 0 0 0 0 0 0 0 0 0 0 0 0 0 0 0 0 0 0 0 0 0 0 0 0 0 0
0 0 0 0 0 0 0 0 0 0 0 0 0 0 0 0 0 0 0 0 0 0 0 0 0 0 0 0 0 0 0 0 0 0 0 0 0 0 0 0 0 0 0 0
0 0 0 0 0 0 0 0 0 0 0 0 0 0 0 0 0 0 0 0 0 0 0 0 0 0 0 0 0 0 0 0 0 0 0 0 0 0 0 0 0 0 0 0
0 0 0 0 0 0 0 0 0 0 0 0 0 0 0 0 0 0 0 0 0 0 0 0 0 0 0 0 0 0 0 0 0 0 0 0 0 0 0 0 0 0 0 0
0 0 0 0 0 0 0 0 0 0 0 0 0 0 0 0 0 0 0 0 0 0 0 0 0 0 0 0 0 0 0 0 0 0 0 0 0 0 0 0 0 0 0 0
0 0 0 0 0 0 0 0 0 0 0 0 0 0 0 0 0 0 0 0 0 0 0 0 0 0 0 0 0 0 0 0 0 0 0 0 0 0 0 0 0 0 0 0
0 0 0 0 0 0 0 0 0 0 0 0 0 0 0 0 0 0 0 0 0 0 0 0 0 0 0 0 0 0 0 0 0 0 0 0 0 0 0 0 0 0 0 0
0 0 0 0 0 0 0 0 0 0 0 0 0 0 0 0 0 0 0 0 0 0 0 0 0 0 0 0 0 0 0 0 0 0 0 0 0 0 0 0 0 0 0 0
0 0 0 0 0 0 0 0 0 0 0 0 0 0 0 0 0 0 0 0 0 0 0 0 0 0 0 0 0 0 0 0 0 0 0 0 0 0 0 0 0 0 0 0
0 0 0 0 0 0 0 0 0 0 0 0 0 0 0 0 0 0 0 0 0 0 0 0 0 0 0 0 0 0 0 0 0 0 0 0 0 0 0 0 0 0 0 0
0 0 0 0 0 0 0 0 0 0 0 0 0 0 0 0 0 0 0 0 0 0 0 0 0 0 0 0 0 0 0 0 0 0 0 0 0 0 0 0 0 0 0 0
0 0 0 0 0 0 0 0 0 0 0 0 0 0 0 0 0 0 0 0 0 0 0 0 0 0 0 0 0 0 0 0 0 0 0 0 0 0 0 0 0 0 0 0
0 0 0 0 0 0 0 0 0 0 0 0 0 0 0 0 0 0 0 0 0 0 0 0 0 0 0 0 0 0 0 0 0 0 0 0 0 0 0 0 0 0 0 0
0 0 0 0 0 0 0 0 0 0 0 0 0 0 0 0 0 0 0 0 0 0 0 0 0 0 0 0 0 0 0 0 0 0 0 0 0 0 0 0 0 0 0 0
0 0 0 0 0 0 0 0 0 0 0 0 0 0 0 0 0 0 0 0 0 0 0 0 0 0 0 0 0 0 0 0 0 0 0 0 0 0 0 0 0 0 0 0
0 0 0 0 0 0 0 0 0 0 0 0 0 0 0 0 0 0 0 0 0 0 0 0 0 0 0 0 0 0 0 0 0 0 0 0 0 0 0 0 0 0 0 0
0 0 0 0 0 0 0 0 0 0 0 0 0 0 0 0 0 0 0 0 0 0 0 0 0 0 0 0 0 0 0 0 0 0 0 0 0 0 0 0 0 0 0 0
0 0 0 0 0 0 0 0 0 0 0 0 0 0 0 0 0 0 0 0 0 0 0 0 0 0 0 0 0 0 0 0 0 0 0 0 0 0 0 0 0 0 0 0
0 0 0 0 0 0 0 0 0 0 0 0 0 0 0 0 0 0 0 0 0 0 0 0 0 0 0 0 0 0 0 0 0 0 0 0 0 0 0 0 0 0 0 0
0 0 0 0 0 0 0 0 0 0 0 0 0 0 0 0 0 0 0 0 0 0 0 0 0 0 0 0 0 0 0 0 0 0 0 0 0 0 0 0 0 0 0 0
0 0 0 0 0 0 0 0 0 0 0 0 0 0 0 0 0 0 0 0 0 0 0 0 0 0 0 0 0 0 0 0 0 0 0 0 0 0 0 0 0 0 0 0
0 0 0 0 0 0 0 0 0 0 0 0 0 0 0 0 0 0 0 0 0 0 0 0 0 0 0 0 0 0 0 0 0 0 0 0 0 0 0 0 0 0 0 0
0 0 0 0 0 0 0 0 0 0 0 0 0 0 0 0 0 0 0 0 0 0 0 0 0 0 0 0 0 0 0 0 0 0 0 0 0 0 0 0 0 0 0 0
0 0 0 0 0 0 0 0 0 0 0 0 0 0 0 0 0 0 0 0 0 0 0 0 0 0 0 0 0 0 0 0 0 0 0 0 0 0 0 0 0 0 0 0
0 0 0 0 0 0 0 0 0 0 0 0 0 0 0 0 0 0 0 0 0 0 0 0 0 0 0 0 0 0 0 0 0 0 0 0 0 0 0 0 0 0 0 0
Wind_Speed
7 4 4 7 9 10 10 7 5 4 4 4 6 6 6 7 6 6 7 7 6 6 5 5 5 5 5 5 4 4 4 5 5 4 3 3 3 3 4 4 5 5 5 5
6 4 3 6 8 8 8 7 6 5 3 3 5 5 5 6 6 7 8 8 7 6 6 6 6 6 6 6 6 6 6 6 5 5 5 5 5 5 5 6 7 7 8 8
3 5 3 4 7 7 6 5 4 4 1 3 4 5 6 6 7 8 8 7 8 7 7 7 6 6 6 6 6 6 6 6 7 7 7 7 7 7 6 7 7 8 8 8
2 3 3 6 6 5 4 4 3 2 0 3 2 2 3 6 7 8 8 8 8 7 6 7 7 6 6 7 7 7 6 6 7 7 6 6 6 7 7 6 6 6 6 6
4 2 7 6 6 4 2 4 3 1 1 3 3 2 6 8 7 6 6 6 6 7 6 6 7 6 6 7 7 6 6 6 6 6 6 7 6 6 5 5 5 5 5 6
4 4 3 6 9 5 3 4 5 1 3 5 4 4 6 7 6 6 5 5 6 6 6 6 5 5 6 6 7 7 6 6 6 5 6 7 7 6 5 5 4 4 4 4
4 2 6 9 9 6 2 5 6 3 4 7 8 6 4 6 6 5 4 5 5 6 5 4 4 4 6 6 6 5 4 5 5 5 6 6 6 6 6 5 5 5 5 4
2 2 4 11 8 3 6 7 6 5 5 6 5 5 5 5 5 5 5 5 5 5 5 4 3 4 4 4 3 3 3 3 4 5 6 6 5 5 6 6 6 6 5 5
3 4 7 8 4 6 5 6 6 6 5 3 4 5 6 5 5 5 6 5 4 5 5 5 4 4 3 2 1 2 3 2 3 5 5 5 6 6 5 6 5 5 5 5
2 6 8 8 6 6 4 5 6 5 3 3 4 5 5 4 5 5 5 5 5 5 6 6 4 3 3 2 1 1 3 3 4 5 5 6 5 5 5 6 6 5 6 6
4 6 8 8 8 9 6 6 6 5 3 2 3 4 4 4 5 5 5 5 5 5 5 6 4 4 4 4 4 2 3 4 5 5 4 5 5 5 5 5 5 4 4 5
2 7 7 10 11 11 9 7 7 6 5 3 1 2 4 4 4 4 5 5 5 5 5 6 5 5 4 4 4 4 4 4 3 3 3 4 5 4 7 6 7 8 8 7
2 5 4 10 13 12 10 9 7 6 4 3 2 2 3 3 3 4 5 6 6 5 5 5 5 5 5 4 4 4 5 4 3 3 2 2 3 4 3 3 5 7 8 9
5 5 6 8 11 11 10 9 8 7 5 3 1 1 2 3 3 4 4 5 6 5 5 5 5 5 5 4 3 3 5 4 3 2 3 3 3 3 3 3 2 1 2 4
7 6 7 8 10 10 9 8 8 7 6 5 3 1 1 2 3 3 4 4 5 5 5 5 5 5 5 4 4 4 4 3 3 2 2 2 2 2 3 4 3 2 2 1
9 7 9 10 10 10 9 9 8 8 6 5 4 2 1 1 2 2 3 4 5 4 4 5 5 5 4 3 2 3 4 4 3 2 0 1 2 2 3 3 3 3 4 3
12 11 10 11 11 11 10 9 8 7 6 6 4 2 1 3 2 1 3 4 4 3 3 5 5 6 5 4 2 1 4 3 1 3 1 2 2 2 2 3 3 4 3 2
12 11 10 11 10 10 10 9 7 6 4 5 4 2 3 3 2 2 3 4 4 3 5 5 5 7 6 3 3 2 1 4 3 2 1 2 2 1 2 3 3 4 3 2
11 11 11 10 10 10 9 8 7 5 4 4 4 4 4 2 1 2 3 4 3 3 4 5 9 8 4 5 4 3 3 1 2 2 3 3 1 1 2 2 3 3 3 3
9 10 11 10 10 9 8 7 7 6 5 5 5 4 3 3 2 1 3 3 1 3 3 5 6 6 4 5 5 4 4 2 1 2 3 3 2 1 2 3 3 2 3 3
8 9 9 9 8 8 7 7 7 6 5 5 4 4 4 3 2 2 2 2 1 4 3 7 4 2 4 5 5 5 5 3 2 2 3 3 3 2 2 3 4 3 3 3
7 8 9 8 8 8 7 7 7 7 6 6 5 5 4 3 3 3 4 3 2 3 1 4 2 3 5 7 4 5 4 3 2 1 1 2 2 2 2 2 3 3 3 3
7 8 9 9 10 9 9 8 7 7 7 6 6 6 5 4 3 2 2 1 3 4 1 3 2 5 8 6 5 5 5 4 3 2 3 3 2 2 2 3 3 3 3 3
5 6 8 9 10 10 10 9 8 6 7 6 5 5 5 4 3 3 3 4 5 3 2 4 5 8 8 5 6 5 4 3 3 2 2 3 2 2 2 3 3 3 4 4
4 5 6 7 8 7 8 8 8 7 7 5 6 6 5 4 3 3 2 2 5 5 4 5 7 8 7 6 5 4 3 2 1 1 1 2 2 2 2 3 3 4 4 4
4 3 3 4 4 3 4 5 5 5 5 5 4 4 4 4 4 4 3 3 5 6 4 4 5 6 5 3 3 4 4 3 2 3 3 3 3 4 3 3 4 4 4 4
6 3 1 3 3 2 2 3 3 5 5 5 5 5 5 5 5 5 5 5 4 4 4 4 4 4 3 2 3 4 4 4 3 3 3 4 3 4 4 5 4 4 4 4
Wind_Direction
89 85 54 48 44 46 52 56 61 60 40 355 328 325 325 331 345 5 12 10 10 8 10 22 30 33 28 33 32 37 41 36 26 20 7 359 355 341 334 342 346 349 0 10
138 132 99 72 60 58 58 59 83 93 63 307 304 315 348 1 11 23 19 11 6 15 19 29 35 40 37 39 43 44 43 37 30 32 30 26 24 23 23 24 19 17 22 38
129 151 202 81 60 66 70 69 65 62 19 305 328 357 10 12 20 26 21 10 4 16 24 26 30 44 53 46 44 45 48 43 37 36 36 32 28 25 34 44 36 32 31 39
279 180 70 90 107 106 100 98 97 83 279 285 297 335 23 30 24 24 16 9 1 6 23 27 23 39 56 59 48 40 40 47 42 36 34 34 35 35 35 41 46 42 33 36
329 56 123 143 154 164 142 123 133 82 339 299 238 168 60 39 29 27 14 4 354 356 17 27 20 29 49 60 56 42 33 40 42 36 30 27 30 38 37 36 43 54 39 32
296 318 74 133 134 152 226 144 136 120 22 11 33 69 41 24 25 23 17 4 350 352 12 17 13 22 44 54 53 43 31 31 35 36 39 31 22 19 26 31 29 50 51 39
290 321 96 120 136 178 241 114 128 106 53 42 44 45 25 16 21 13 13 11 357 351 360 353 359 23 52 52 55 55 40 32 33 29 50 49 26 20 22 25 24 26 36 34
298 295 127 143 164 197 97 114 125 99 67 54 40 34 26 17 18 11 5 13 3 347 339 334 11 31 55 64 62 75 65 47 51 51 44 45 40 32 29 21 26 27 21 19
9 62 103 150 146 99 121 131 113 100 81 56 37 30 22 14 19 13 5 11 355 341 343 351 23 31 40 71 58 101 84 60 72 77 70 50 43 39 31 26 25 22 17 14
233 162 158 172 145 139 168 120 111 108 101 58 32 27 16 14 24 12 1 358 353 7 5 343 350 31 49 40 325 128 111 79 77 74 76 69 48 44 43 27 20 15 15 12
235 146 151 179 173 167 168 148 145 141 122 80 35 19 8 21 23 4 354 357 10 17 345 330 357 42 55 24 341 15 93 87 84 81 86 89 73 44 48 59 39 22 6 6
224 166 171 181 178 172 169 173 169 162 152 136 90 22 8 22 18 2 1 5 5 3 348 352 11 34 52 27 348 20 68 71 72 87 97 121 123 97 54 65 62 58 46 36
73 123 137 150 165 170 174 179 174 168 164 155 126 62 11 7 18 13 10 6 353 355 3 7 18 32 30 23 5 31 64 63 64 48 56 87 125 142 138 92 60 56 51 47
130 143 133 148 159 168 180 178 172 175 174 172 132 57 10 358 17 15 9 357 341 349 16 18 28 32 14 2 1 54 88 80 74 65 48 58 66 81 106 126 129 114 61 45
169 175 157 156 156 172 178 176 181 188 186 174 163 182 47 7 2 356 359 352 337 355 20 19 31 25 2 349 3 48 62 62 53 52 56 80 81 81 87 90 87 81 84 41
178 186 164 167 171 179 181 188 194 198 188 175 171 179 145 320 303 321 358 349 335 352 10 20 29 7 343 334 22 88 88 60 19 339 360 102 93 89 89 91 89 75 59 27
180 188 182 180 181 185 190 196 203 204 186 176 178 168 237 266 279 359 0 332 316 328 33 39 27 345 322 317 315 150 141 133 217 288 318 79 81 92 97 93 93 92 85 48
188 191 190 189 187 188 193 198 205 206 186 168 148 178 242 264 314 355 334 320 321 0 50 37 13 325 303 345 352 351 160 165 191 197 101 68 40 85 104 107 113 120 135 142
187 188 191 194 190 189 191 193 192 192 186 163 167 210 230 251 296 322 321 318 329 10 23 14 340 312 317 72 15 315 295 185 170 150 127 124 246 206 134 120 115 119 131 131
192 188 190 193 190 186 186 186 185 186 183 175 185 207 222 228 216 277 302 301 344 74 4 346 319 311 5 54 9 313 302 270 210 179 157 169 214 191 150 140 133 130 133 136
201 194 193 193 187 185 184 183 180 179 177 177 193 211 220 223 204 231 266 289 78 76 346 312 297 0 21 355 317 292 290 282 241 210 175 182 201 187 178 165 153 150 146 144
212 204 199 195 187 186 187 190 182 179 181 182 193 217 225 226 233 237 235 221 160 113 316 304 5 28 342 325 288 276 275 276 267 230 186 191 193 188 190 169 153 149 148 145
216 211 205 202 198 195 192 198 193 183 185 189 193 203 214 214 219 230 261 206 123 116 285 295 340 319 318 305 279 265 249 240 234 221 197 196 200 199 192 167 157 151 151 153
245 223 211 205 203 201 200 199 198 186 178 184 196 204 209 204 207 214 224 205 175 169 250 273 278 287 296 282 273 268 258 231 208 213 206 187 189 199 192 168 162 162 163 163
292 264 234 213 210 208 205 196 193 189 181 183 194 200 206 205 205 218 241 206 166 182 239 269 266 269 273 271 278 295 304 298 194 175 192 184 181 187 202 180 172 172 172 172
320 305 295 257 232 212 205 194 186 179 180 183 193 197 197 194 196 198 211 241 240 222 226 248 258 259 260 281 321 320 306 286 214 192 205 211 203 190 198 208 196 184 180 178
319 304 289 288 281 254 239 216 195 188 183 182 191 198 202 199 193 196 205 214 224 220 220 227 239 253 268 278 279 280 281 282 267 215 204 207 209 202 195 198 195 190 183 177